Location: Kapuskasing
(49.3803°N, 82.4001°W)
Time: 10:55:21
(UTC-04:00)

Envisat - Pass Details

Date: 14 March 2026
Orbit: 761 x 762 km, 98.4° (Epoch: 11 April)

Event Time Altitude Azimuth Distance (km) Brightness Sun altitude
Rises 02:43:14 0° 30° (NNE) 3,235 7.1 -41.2°
Reaches altitude 10° 02:46:45 10° 56° (NE) 2,302 6.0 -40.9°
Enters shadow 02:47:19 11° 62° (ENE) 2,203 5.8 -40.9°
